Total_Precipitation_Accumulation
0.62 0.58 0.45 0.46 0.39 0.30 0.30 0.30 0.21 0.17 0.16 0.08 0.06 0.07 0.04 0.05 0.10 0.13 0.18 0.37 0.63 0.74 0.63 0.49 0.40 0.33 0.31 0.31 0.32 0.29 0.29 0.29 0.32 0.35 0.33 0.29 0.30 0.29 0.22 0.19 0.23 0.23 0.20
0.53 0.61 0.54 0.53 0.43 0.42 0.44 0.33 0.26 0.24 0.21 0.11 0.05 0.05 0.04 0.04 0.07 0.13 0.22 0.34 0.55 0.82 0.96 0.79 0.66 0.56 0.42 0.34 0.33 0.33 0.31 0.27 0.27 0.31 0.30 0.24 0.25 0.24 0.19 0.18 0.23 0.24 0.22
0.54 0.64 0.63 0.57 0.52 0.54 0.53 0.49 0.44 0.32 0.23 0.14 0.08 0.05 0.04 0.06 0.06 0.06 0.12 0.26 0.34 0.44 0.70 0.89 0.91 0.83 0.62 0.44 0.35 0.28 0.27 0.26 0.25 0.27 0.26 0.22 0.21 0.18 0.16 0.17 0.20 0.19 0.19
0.62 0.78 0.80 0.66 0.65 0.67 0.65 0.65 0.57 0.44 0.32 0.24 0.17 0.12 0.07 0.06 0.06 0.06 0.06 0.09 0.11 0.11 0.20 0.32 0.42 0.57 0.66 0.61 0.49 0.35 0.27 0.21 0.19 0.21 0.22 0.18 0.15 0.14 0.15 0.15 0.14 0.15 0.17
0.82 0.97 1.03 0.92 0.85 0.89 0.80 0.69 0.65 0.62 0.49 0.42 0.32 0.23 0.13 0.09 0.07 0.06 0.07 0.07 0.07 0.07 0.09 0.10 0.15 0.21 0.36 0.46 0.49 0.45 0.34 0.24 0.18 0.17 0.17 0.12 0.11 0.11 0.12 0.12 0.13 0.16 0.18
1.06 1.19 1.28 1.24 1.16 1.18 1.11 0.93 0.92 0.88 0.76 0.70 0.53 0.37 0.25 0.18 0.13 0.10 0.10 0.12 0.11 0.05 0.04 0.05 0.10 0.09 0.12 0.21 0.28 0.34 0.33 0.27 0.20 0.18 0.17 0.14 0.10 0.10 0.10 0.12 0.13 0.15 0.16
1.44 1.53 1.48 1.69 1.73 1.66 1.60 1.48 1.46 1.40 1.13 0.88 1.01 0.93 0.55 0.32 0.24 0.20 0.17 0.14 0.12 0.09 0.07 0.06 0.10 0.10 0.07 0.07 0.11 0.19 0.23 0.23 0.21 0.16 0.16 0.14 0.12 0.11 0.11 0.12 0.14 0.17 0.18
1.78 1.70 1.73 1.92 1.96 2.03 2.09 1.86 1.86 1.84 1.52 1.15 1.38 1.59 1.12 0.75 0.40 0.25 0.23 0.19 0.18 0.16 0.13 0.10 0.09 0.08 0.06 0.07 0.04 0.07 0.14 0.20 0.20 0.18 0.15 0.14 0.12 0.11 0.09 0.10 0.14 0.18 0.17
2.17 2.05 2.00 2.08 2.09 2.13 2.26 2.26 2.14 2.12 1.98 1.63 1.49 1.68 1.47 1.20 0.89 0.42 0.30 0.30 0.30 0.27 0.24 0.19 0.16 0.12 0.10 0.10 0.09 0.05 0.06 0.10 0.17 0.19 0.16 0.15 0.13 0.10 0.08 0.09 0.14 0.17 0.14
2.32 2.27 2.23 2.26 2.23 2.15 2.21 2.28 2.24 2.33 2.42 2.10 1.80 1.51 1.31 1.25 1.20 0.84 0.50 0.40 0.43 0.42 0.37 0.27 0.22 0.20 0.17 0.14 0.14 0.09 0.05 0.05 0.12 0.19 0.22 0.21 0.17 0.13 0.11 0.11 0.15 0.15 0.14
2.00 1.99 2.11 2.23 2.21 2.18 2.16 2.31 2.40 2.51 2.42 2.29 2.07 1.89 1.70 1.47 1.13 1.10 0.99 0.73 0.59 0.50 0.49 0.44 0.38 0.34 0.26 0.25 0.28 0.19 0.11 0.06 0.07 0.14 0.21 0.25 0.25 0.21 0.19 0.17 0.16 0.16 0.18
1.77 1.73 1.83 1.92 2.00 2.03 2.02 2.04 2.16 2.27 2.35 2.41 2.26 2.03 1.89 1.72 1.56 1.42 1.12 0.95 0.88 0.68 0.57 0.50 0.47 0.47 0.44 0.39 0.37 0.33 0.23 0.15 0.09 0.11 0.15 0.21 0.25 0.25 0.25 0.25 0.23 0.20 0.21
1.69 1.66 1.63 1.71 1.79 1.81 1.90 2.03 1.98 1.97 2.09 2.21 2.19 2.09 2.01 1.80 1.64 1.66 1.45 1.15 1.03 0.79 0.62 0.53 0.46 0.44 0.44 0.45 0.48 0.44 0.28 0.25 0.16 0.10 0.11 0.13 0.16 0.19 0.23 0.31 0.35 0.36 0.40
1.35 1.32 1.35 1.45 1.62 1.70 1.78 1.87 1.87 1.84 1.85 1.86 1.91 1.97 2.00 1.91 1.68 1.57 1.55 1.56 1.35 1.07 0.82 0.62 0.49 0.45 0.42 0.40 0.50 0.53 0.35 0.28 0.22 0.17 0.14 0.12 0.12 0.14 0.17 0.24 0.34 0.42 0.60
1.01 1.03 1.07 1.19 1.36 1.49 1.53 1.59 1.69 1.71 1.70 1.67 1.71 1.74 1.72 1.78 1.69 1.51 1.44 1.43 1.46 1.26 1.11 0.90 0.64 0.47 0.46 0.42 0.45 0.40 0.36 0.33 0.28 0.24 0.21 0.17 0.13 0.12 0.13 0.16 0.18 0.19 0.23
0.92 0.97 0.98 1.01 1.10 1.21 1.31 1.42 1.51 1.57 1.53 1.48 1.48 1.51 1.56 1.62 1.69 1.66 1.61 1.52 1.44 1.32 1.20 1.02 0.77 0.53 0.52 0.52 0.50 0.42 0.43 0.46 0.37 0.29 0.24 0.20 0.16 0.12 0.11 0.10 0.10 0.08 0.08
0.89 0.92 0.96 0.99 0.99 1.08 1.12 1.20 1.30 1.41 1.39 1.36 1.31 1.32 1.43 1.47 1.64 1.70 1.65 1.56 1.50 1.40 1.23 1.11 0.87 0.63 0.55 0.55 0.56 0.51 0.47 0.45 0.41 0.34 0.29 0.26 0.22 0.19 0.17 0.13 0.11 0.09 0.07
0.73 0.82 0.91 0.90 0.89 0.95 1.01 1.10 1.20 1.25 1.26 1.19 1.13 1.13 1.23 1.32 1.43 1.56 1.64 1.55 1.50 1.43 1.38 1.30 1.07 0.81 0.70 0.65 0.58 0.53 0.48 0.47 0.48 0.46 0.39 0.34 0.32 0.30 0.27 0.23 0.19 0.14 0.11
0.68 0.80 0.89 0.98 0.87 0.78 0.89 0.97 1.04 1.07 1.02 0.96 0.96 0.97 1.02 1.08 1.17 1.30 1.43 1.52 1.49 1.42 1.47 1.44 1.23 0.96 0.76 0.67 0.64 0.57 0.50 0.55 0.52 0.50 0.47 0.41 0.37 0.34 0.33 0.32 0.31 0.28 0.21
0.55 0.61 0.72 0.78 0.80 0.75 0.74 0.77 0.80 0.93 0.91 0.83 0.75 0.75 0.80 0.82 0.87 1.00 1.15 1.29 1.43 1.50 1.54 1.54 1.40 1.12 0.88 0.74 0.68 0.69 0.70 0.63 0.61 0.55 0.55 0.53 0.52 0.49 0.44 0.40 0.36 0.33 0.30
0.42 0.48 0.64 0.78 0.81 0.77 0.78 0.80 0.74 0.78 0.84 0.84 0.76 0.67 0.62 0.63 0.68 0.77 0.88 1.11 1.27 1.41 1.51 1.53 1.45 1.28 1.07 0.92 0.79 0.73 0.75 0.80 0.82 0.74 0.71 0.65 0.60 0.53 0.46 0.37 0.31 0.27 0.24
0.38 0.41 0.49 0.61 0.73 0.72 0.86 0.88 0.83 0.76 0.78 0.77 0.73 0.73 0.71 0.67 0.57 0.51 0.54 0.69 0.91 1.12 1.27 1.35 1.37 1.26 1.09 0.98 0.93 0.87 0.77 0.76 0.84 0.82 0.82 0.87 0.76 0.66 0.59 0.48 0.41 0.33 0.27
0.36 0.39 0.44 0.55 0.68 0.83 0.84 0.72 0.79 0.76 0.74 0.74 0.69 0.69 0.74 0.74 0.77 0.65 0.56 0.53 0.58 0.74 0.94 1.09 1.13 1.10 1.13 1.04 0.90 0.80 0.72 0.68 0.67 0.66 0.69 0.79 0.77 0.69 0.61 0.57 0.55 0.47 0.40
0.35 0.37 0.41 0.46 0.54 0.72 0.75 0.64 0.79 0.79 0.79 0.79 0.74 0.74 0.77 0.80 0.79 0.89 0.85 0.77 0.72 0.73 0.83 0.73 0.78 1.00 1.05 1.01 0.94 0.88 0.84 0.75 0.65 0.57 0.54 0.63 0.65 0.63 0.54 0.48 0.47 0.41 0.36
0.37 0.37 0.37 0.39 0.42 0.50 0.57 0.52 0.62 0.73 0.83 0.84 0.74 0.72 0.77 0.76 0.95 1.00 0.90 0.89 0.84 0.80 0.96 0.95 0.90 0.88 0.87 0.83 0.82 0.84 0.86 0.80 0.74 0.64 0.53 0.49 0.52 0.56 0.55 0.48 0.44 0.41 0.35
0.43 0.40 0.38 0.37 0.39 0.40 0.51 0.38 0.48 0.63 0.78 0.88 0.80 0.74 0.91 0.86 0.87 0.80 0.70 0.86 0.88 0.79 0.73 0.72 0.72 0.72 0.67 0.66 0.68 0.70 0.77 0.76 0.70 0.69 0.58 0.50 0.49 0.50 0.50 0.46 0.40 0.38 0.36